Hourly Weather Roundup
Issued by NWS Central Illinois

Home | Current Version | Previous Version | Text Only | Print | Product List | Glossary On
Versions: 1 2 3 4 5 6 7 8 9 10 11 12 13 14 15 16 17 18 19 20 21 22 23 24 25 26 27 28 29 30 31 32 33 34 35 36 37 38 39 40 41 42 43 44 45 46 47 48 49 50
000
NZUS43 KILX 300510
HWRILX

AREA WEATHER ROUNDUP
NATIONAL WEATHER SERVICE, LINCOLN IL
1200 AM CDT TUE JUN 30 2015


CITY           SKY/WX    TMP DP  RH WIND       PRES   REMARKS
BLOOMINGTON    PTCLDY    69  66  90 SW8       29.85S
CHAMPAIGN      PTCLDY    66  64  93 SW6       29.84F
DANVILLE       FOG       61  61 100 CALM      29.82S VSB 1/2
DECATUR        CLEAR     67  64  90 SW6       29.85S
EFFINGHAM      CLEAR     67  63  89 CALM      29.88S
FLORA          CLEAR     67  65  93 CALM      29.87S
GALESBURG      MOCLDY    65  61  86 CALM      29.85S
JACKSONVILLE   CLEAR     69  67  93 SW6       29.86S
LACON          CLOUDY    69  62  78 W6        29.81F
LAWRENCEVILLE  CLEAR     68  65  90 SW6       29.86S
LITCHFIELD     CLEAR     66  64  90 CALM      29.88R
$$


CITY           SKY/WX    TMP DP  RH WIND       PRES   REMARKS
LINCOLN        PTCLDY    70  66  87 SW3       29.85S
MACOMB         PTCLDY    66  65  97 W7        29.86F
MATTOON        CLEAR     67  64  90 SW5       29.85R
MT CARMEL AP   CLEAR     70  64  83 CALM      29.86S
OLNEY-NOBLE AP CLEAR     64  64 100 CALM      29.87S
PARIS          CLEAR     67  65  94 SW6       29.86R
PEORIA         TSTM      69  62  78 VRB3      29.83F
PONTIAC        CLOUDY    66  66 100 CALM      29.83S
RANTOUL        PTCLDY    67  66  94 SW5       29.83S
ROBINSON       CLEAR     67  64  93 S3        29.86S
SPRINGFIELD    PTCLDY    69  65  86 W5        29.85S
TAYLORVILLE    CLEAR     64  64 100 SW3       29.86S
$$

...REGIONAL REPORTS...


CITY           SKY/WX    TMP DP  RH WIND       PRES   REMARKS
CHICAGO O`HARE MOCLDY    64  63  96 S5        29.78F
KANKAKEE       CLEAR     64  64  98 S3        29.82S
MOLINE         CLOUDY    67  64  90 CALM      29.83F
MOUNT VERNON   MOCLDY    70  64  83 CALM      29.88S
PITTSFIELD     CLEAR     68  65  90 CALM      29.88S
QUINCY         CLEAR     69  66  90 W6        29.87R
ROCKFORD       LGT RAIN  66  62  87 CALM      29.80F
$$


CITY           SKY/WX    TMP DP  RH WIND       PRES   REMARKS
BURLINGTON     CLEAR     68  66  93 W3        29.84F
CEDAR RAPIDS   CLOUDY    63  63 100 E6        29.84F
DES MOINES     CLOUDY    71  63  75 W3        29.87F
KIRKSVILLE     CLEAR     66  64  93 W5        29.91R
OTTUMWA        CLEAR     68  66  93 W7        29.84F
ST LOUIS       PTCLDY    74  68  81 SW3       29.88S
$$


CITY           SKY/WX    TMP DP  RH WIND       PRES   REMARKS
TERRE HAUTE    CLEAR     69  64  84 W6        29.84S
EVANSVILLE     CLEAR     70  64  81 CALM      29.87F
INDIANAPOLIS   MOCLDY    66  62  87 SW6       29.83R
LAFAYETTE      FOG       63  62  97 CALM      29.83R VSB 3/4
MADISON        CLOUDY    62  59  90 NW3       29.78F
MILWAUKEE      MOCLDY    62  60  93 S7        29.77F
$$




USA.gov is the U.S. government's official web portal to all federal, state and local government web resources and services.